Content
SEND FEEDBACK

Daily
Averages
Monthly
Summary
France

RENNES, FRANCE


Home > Europe > France
Elevation: 121 feet     Latitude: 48 04N     Longitude: 001 43W

WEATHER
 
SELECT A DAY
Number of Records: 236,629;   Date Range: 7/1/96 - 8/31/14
 
SHARE

PRINT THIS DATA

[ ← Previous Day ]
WEATHER ALMANAC - JULY 6, 2013
[ Next Day → ]
[ °C ]   °F
Weather ElementAverageHighLow
Temperature67.1 °F80.6 °F (3:30 pm)51.8 °F (5:00 am)
Dewpoint56 °F59 °F (9:30 am)50 °F (6:00 am)
Humidity70.4 %100 % (4:00 am)38 % (2:00 pm)
Barometer30.34 in30.38 in (2:00 am)30.30 in (4:30 pm)
Wind Speed6.7 mph13.8 mph (7:30 pm)
Weather ElementAverage
Visibility6.1 mi
Wind DirectionWSW (237.8 °)

Weather ElementTotal
Precipitation---
Cooling Degree Days1.2 (Base 65)
Growing Degree Days16.2 (Base 50)
Averaged from 50 records on July 6, 2013
WEATHER CONDITIONS BREAKOUT
WIND DIRECTION BREAKOUT
WEATHER BY HOUR - JULY 6, 2013
[ °C ]   °F
Local TimeTemperatureDewpointHumidityBarometerVisibilityWind DirectionWind SpeedGust SpeedPrecipitationEventsConditions
12:30 AM59.0 °F53.6 °F82 %30.36 in6.2 miNNW (340°)5.8 mph
1:00 AM57.2 °F53.6 °F88 %30.36 in6.2 miNNW (340°)5.8 mph
1:30 AM55.4 °F51.8 °F88 %30.36 in6.2 miNW (320°)3.5 mph
2:00 AM55.0 °F53.0 °F90 %30.38 in8.0 miNW (320°)4.6 mphClear
2:00 AM55.4 °F53.6 °F94 %30.36 in6.2 miNW (320°)4.6 mph
2:30 AM55.4 °F53.6 °F94 %30.36 in6.2 miNW (320°)4.6 mph
3:00 AM55.4 °F53.6 °F94 %30.36 in6.2 miNNW (330°)4.6 mph
3:30 AM53.6 °F51.8 °F94 %30.36 in3.7 miNW (320°)3.5 mph
4:00 AM53.6 °F53.6 °F100 %30.33 in5.0 miNNW (340°)3.5 mph
4:30 AM53.6 °F53.6 °F100 %30.33 in2.8 miWNW (300°)3.5 mphMist
5:00 AM51.8 °F51.8 °F100 %30.33 in1.6 miWNW (300°)3.5 mphMist
5:30 AM51.8 °F51.8 °F100 %30.33 in2.2 miWNW (290°)3.5 mphMist
6:00 AM51.8 °F50.0 °F94 %30.33 in1.9 miWNW (290°)3.5 mphMist
6:30 AM51.8 °F51.8 °F100 %30.33 in0.9 miWNW (290°)4.6 mphMist
7:00 AM51.8 °F51.8 °F100 %30.36 in1.8 miWNW (290°)4.6 mphMist
7:30 AM55.4 °F53.6 °F94 %30.36 inWNW (300°)3.5 mphMist
8:00 AM57.2 °F55.4 °F94 %30.36 in5.6 miNNW (340°)3.5 mph
8:30 AM59.0 °F57.2 °F94 %30.36 in6.2 miNNW (340°)3.5 mph
9:00 AM62.6 °F57.2 °F82 %30.36 in6.2 miNorth (350°)3.5 mph
9:30 AM66.2 °F59.0 °F78 %30.36 in6.2 miNorth (360°)5.8 mph
10:00 AM68.0 °F59.0 °F73 %30.36 in6.2 miNorth (360°)4.6 mph
10:30 AM69.8 °F59.0 °F68 %30.36 in6.2 miNorth (350°)3.5 mph
11:00 AM71.6 °F59.0 °F64 %30.36 in6.2 miVariable3.5 mph
11:30 AM73.4 °F59.0 °F61 %30.33 in6.2 miNorth (350°)3.5 mph
12:00 PM75.2 °F59.0 °F57 %30.33 in5.0 miNorth (10°)3.5 mph
12:30 PM75.2 °F59.0 °F57 %30.33 in6.2 miNW (320°)6.9 mph
1:00 PM77.0 °F59.0 °F54 %30.33 in6.2 miNorth (10°)5.8 mphMostly Cloudy
1:30 PM77.0 °F57.2 °F50 %30.33 in6.2 miVariable4.6 mphMostly Cloudy
2:00 PM77.0 °F56.0 °F38 %30.35 in12.0 miNorth (10°)6.9 mphClear
2:00 PM77.0 °F57.2 °F50 %30.33 in6.2 miVariable8.1 mphMostly Cloudy
2:30 PM78.8 °F59.0 °F51 %30.33 in6.2 miNNE (30°)8.1 mphScattered Clouds
3:00 PM78.8 °F57.2 °F47 %30.33 in6.2 miNNE (30°)8.1 mph
3:30 PM80.6 °F59.0 °F48 %30.33 in6.2 miNorth (360°)8.1 mph
4:00 PM78.8 °F57.2 °F47 %30.33 in6.2 miNNE (30°)8.1 mph
4:30 PM78.8 °F57.2 °F47 %30.30 in6.2 miVariable8.1 mph
5:00 PM78.8 °F57.2 °F47 %30.30 in6.2 miNorth (360°)11.5 mphMostly Cloudy
5:30 PM78.8 °F57.2 °F47 %30.30 in6.2 miNorth (10°)12.7 mphPartly Cloudy
6:00 PM78.8 °F57.2 °F47 %30.33 in6.2 miNorth (10°)10.4 mphPartly Cloudy
6:30 PM78.8 °F57.2 °F47 %30.30 in6.2 miNorth (10°)11.5 mph
7:00 PM78.8 °F57.2 °F47 %30.30 in6.2 miNorth (360°)12.7 mph
7:30 PM77.0 °F57.2 °F50 %30.30 in6.2 miNorth (360°)13.8 mph
8:00 PM76.0 °F59.0 °F45 %30.32 in25.0 miNorth10.4 mphClear
8:00 PM75.2 °F59.0 °F57 %30.33 in6.2 miNorth (360°)11.5 mph
8:30 PM75.2 °F57.2 °F53 %30.33 in6.2 miNorth (360°)11.5 mph
9:00 PM73.4 °F57.2 °F57 %30.33 in6.2 miNorth (360°)11.5 mph
9:30 PM69.8 °F57.2 °F64 %30.33 in6.2 miNorth (350°)11.5 mph
10:00 PM68.0 °F57.2 °F68 %30.33 in6.2 miNorth (360°)9.2 mph
10:30 PM66.2 °F57.2 °F73 %30.33 in6.2 miNorth (360°)10.4 mph
11:00 PM64.4 °F55.4 °F73 %30.36 in6.2 miNorth (360°)8.1 mph
11:30 PM64.4 °F55.4 °F73 %30.36 in6.2 miNorth (10°)4.6 mph
Hourly data recorded from LFRN, located miles away from Rennes, France







STORIES FROM OUR PARTNERS